Regional Weather Roundup
Issued by NWS Upton, NY

Current Version | Previous Version | Text Only | Print | Product List | Glossary On
Versions: 1 2 3 4 5 6 7 8 9 10 11 12 13 14 15 16 17 18 19 20 21 22 23 24 25 26 27
000
ASUS41 KOKX 262208
RWROKX

REGIONAL WEATHER ROUNDUP
NATIONAL WEATHER SERVICE NEW YORK NY
500 PM EST SUN FEB 26 2017

NOTE: "FAIR" INDICATES FEW OR NO CLOUDS BELOW 12,000 FEET WITH NO
SIGNIFICANT WEATHER AND/OR OBSTRUCTIONS TO VISIBILITY.

NYZ071-072-176-178-NJZ106-104-262300-
NEW YORK CITY METRO AREA

CITY           SKY/WX    TMP DP  RH WIND       PRES   REMARKS
Central Park   PTCLDY    41  14  33 VRB5      30.10R
Wall St Helipt NOT AVBL
LaGuardia APRT PTCLDY    44  16  32 W18G24    30.08R
Kennedy INTL   PTCLDY    43  15  32 W16G24    30.10R
Breezy Point     N/A     39 N/A N/A W16G24      N/A  WCI  30
Newark/Liberty PTCLDY    41  16  36 W20       30.10R
Teterboro      CLEAR     42  16  34 NW12      30.08R
$$

NYZ177-179-078>081-262300-
LONG ISLAND NEW YORK

CITY           SKY/WX    TMP DP  RH WIND       PRES   REMARKS
Jones Beach      N/A     39 N/A N/A W17G26      N/A  WCI  30
Matinecock PT  NOT AVBL
Farmingdale    PTCLDY    41  16  36 NW12G20   30.08R
MacArthur/ISP  PTCLDY    40  17  39 NW16      30.07R WCI  31
Shirley        PTCLDY    39  17  41 NW15G23   30.07R WCI  31
Westhampton    PTCLDY    39  15  37 W18G28    30.07R WCI  30
Southampton    NOT AVBL
Bridgehampton  NOT AVBL
East Hampton     N/A     38  17  41 W15G23    30.04R WCI  29
Montauk          N/A     41  22  46 W13G22    30.04R
$$

NYZ052-065-067-262300-
HUDSON VALLEY

CITY           SKY/WX    TMP DP  RH WIND       PRES   REMARKS
White Plains   PTCLDY    37  15  40 NW14G22   30.06R WCI  28
Newburgh       MOCLDY    36  19  51 NW14G25   30.08R WCI  27
Montgomery     CLOUDY    36  17  46 W13       30.08R WCI  27
Poughkeepsie   PTCLDY    36  13  38 W12       30.07R WCI  28
Albany         MOCLDY    34  19  54 W14       30.07R WCI  25
$$

NJZ001-105-106-008-010-013-015-019>022-104-262300-
NEW JERSEY

CITY           SKY/WX    TMP DP  RH WIND       PRES   REMARKS
Newark/Liberty PTCLDY    41  16  36 W20       30.10R
Teterboro      CLEAR     42  16  34 NW12      30.08R
Caldwell       CLEAR     41  14  33 NW12      30.10R
Somerville     MOCLDY    39  16  39 W13G21    30.11R WCI  31
Linden         NOT AVBL
Sussex         PTCLDY    38  14  37 NW6       30.09R WCI  33
Andover          N/A     37  14  38 NW7       30.08R WCI  32
Trenton        PTCLDY    40  17  39 NW8       30.12R WCI  34
Millville      PTCLDY    43  21  41 W16G22    30.15R
Atlantic City  CLEAR     42  16  34 W16G25    30.14R
Wrightstown    CLEAR     41  16  35 W14       30.10R
Toms River     CLEAR     41  17  38 W17       30.12R
Belmar         PTCLDY    39  17  41 W14G22    30.12R WCI  31
$$

PAZ047>061-062-071-262300-
EASTERN PENNSYLVANIA

CITY           SKY/WX    TMP DP  RH WIND       PRES   REMARKS
Philadelphia   PTCLDY    43  16  33 W20G25    30.16R
Allentown      PTCLDY    38  16  40 NW14G21   30.13R WCI  30
Scranton       CLOUDY    35  18  49 NW9       30.08R WCI  28
$$

CTZ002-004>006-009-010-012-RIZ004-006-007-MAZ004-011-015-262300-
SOUTHERN NEW ENGLAND
 IN CT

CITY           SKY/WX    TMP DP  RH WIND       PRES   REMARKS
Bradley INTL   MOCLDY    36  16  44 W15       30.04R WCI  27
Hartford       CLOUDY    37  17  44 NW14G24   30.05R WCI  28
Danbury        PTCLDY    35  14  42 W10G20    30.07R WCI  27
Wtrbury/Oxford PTCLDY    36  12  38 NW13G18   30.04R WCI  27
Bridgeport     PTCLDY    41  15  35 W16       30.07R
Meriden        PTCLDY    40  14  34 NW14G21   30.04R WCI  32
New Haven      PTCLDY    39  16  39 NW12G20   30.05R WCI  32
Chester          N/A     37  14  38 NW9G18    30.02R WCI  31
Groton         CLEAR     40  16  37 NW13      30.02R WCI  32
Wilimantic     MOCLDY    38  16  40 W12G28    30.03R WCI  30

 IN RI

CITY           SKY/WX    TMP DP  RH WIND       PRES   REMARKS
Providence     PTCLDY    39  12  33 NW16G22   30.00R WCI  30
Block Island   CLEAR     39  20  46 NW12G20   30.02R WCI  32
Westerly       CLEAR     40  13  33 NW9G18    30.03R WCI  34
 IN MA

CITY           SKY/WX    TMP DP  RH WIND       PRES   REMARKS
Boston         PTCLDY    39  14  36 W21G29    29.95R WCI  29
Worcester      PTCLDY    32  11  41 W16G29    29.95R WCI  21
Westfield      MOCLDY    35  16  45 NW17G26   30.03R WCI  25
Provincetown   CLEAR     41  21  44 W16       29.95R
Nantucket      CLEAR     40  23  50 W20       29.97R WCI  30
$$

ANZ330-335-338-340-345-350-353-355-262300-
COASTAL MARINE OBSERVATIONS


STATION/POSITION TIME  SKY/WX   TEMP    WIND        PRES    VSBY  WAVE
                                AIR SEA DIR/SP/G                  HT/PER
                 (UTC)          (F)     (DEG/KT/KT) (MB)    (MI)  (FT/S)
NY HARB ENTRANCE 2050            40 43  280/ 17/ 23 1017.8          3/10
20 S FIRE ISLAND 2150            40 43  290/ 21/ 23 1017.9          5/ 9
GREAT SOUTH BAY  NOT AVBL
23 SSW MONTAUK P 2050            40 44              1016.4          5/ 5
15 E BARNEGAT LI 2130               44                N/A           4/10
HUDSON CANYON    2050               47              1017.9          7/ 6
KINGS POINT      2148            41 41              1018.6
EXECUTION ROCKS  NOT AVBL
CENTRAL LI SOUND 2115            40     260/ 17/ 21   N/A           3/ 4
EASTERN LI SOUND NOT AVBL
ROBBINS REEF     2148            40     270/ 17/ 22 1019.1
$$


>>>>>>>>>>>>>>>>>>>>>>>>>>>> KEY <<<<<<<<<<<<<<<<<<<<<<<<<<<
>                                                          <
>     SKY/WX - Sky Condition/Present Weather               <
>     TMP    - Temperature in Fahrenheit                   <
>     DP     - Dew Point in Fahrenheit                     <
>     RH     - Relative Humidity in Percent                <
>     WIND   - Direction (from) and Speed in MPH           <
>     PRES   - Mean Sea Level Pressure (inches of Hg)      <
>     WCI    - Wind Chill Index                            <
>     VSB    - VISIBILITY IN MILES                         <
>     HX     - HEAT INDEX                                  <
>     TC     - TEMPERATURE IN CELSIUS                      <
>     VRB    - VARIABLE WIND DIRECTION                     <
>                                                          <
>>>>>>>>>>>>>>>>>>>>>>>>>>>> KEY <<<<<<<<<<<<<<<<<<<<<<<<<<<




USA.gov is the U.S. government's official web portal to all federal, state and local government web resources and services.